Home   Weather   Washington DC   Past weeks
Flag for USA

Past Weather in Washington DC, USA — Yesterday and Last 2 Weeks

Now
66 °F

Scattered clouds.


Feels Like: 66 °F
Forecast: 79 / 59 °F
Wind: 6 mph from Southwest

Location: Reagan National Airport

Current Time: Apr 8, 2020 at 11:44:47 am

Latest Report: Apr 8, 2020 at 10:52 am


Visibility: 10 mi

Pressure: 29.62 "Hg

Humidity: 70%

Dew Point: 56 °F

Location of Washington DCLocation

Past Weather in Washington DC — Graph

°F

Washington DC Temperature Yesterday

Maximum temperature yesterday: 71 °F (at 1:52 pm)
Minimum temperature yesterday: 54 °F (at 1:52 am)
Average temperature yesterday: 61 °F

High & Low Weather Summary for the Past Weeks

 TemperatureHumidityPressure
High75 °F (Mar 30, 3:52 pm)100% (Mar 30, 12:36 am)30.22 "Hg (Mar 30, 12:36 am)
Low42 °F (Apr 1, 5:52 am)20% (Apr 6, 5:52 pm)29.56 "Hg (Apr 8, 3:52 am)
Average55 °F71%29.94 "Hg
* Reported Mar 24 9:52 am — Apr 8 9:52 am, Washington DC. Weather by CustomWeather, © 2020

Note: Actual official high and low records may vary slightly from our data, if they occured in-between our weather recording intervals... More about our weather records

Washington DC Weather History for the Previous 24 Hours

Scroll right to see more
 ConditionsComfort  
Time TempWeatherWind HumidityBarometerVisibility
9:52 am
Wed, Apr 8
62 °FMore clouds than sun.5 mph80%29.62 "Hg10 mi
8:52 am60 °FMore clouds than sun.5 mph83%29.61 "Hg10 mi
7:52 am59 °FScattered clouds.7 mph84%29.59 "Hg10 mi
6:52 am58 °FLight rain. Overcast.5 mph87%29.62 "Hg10 mi
5:52 am58 °FLight rain. Mostly cloudy.7 mph87%29.62 "Hg10 mi
4:52 am60 °FMostly cloudy.14 mph80%29.62 "Hg10 mi
3:52 am56 °FPassing clouds.6 mph97%29.56 "Hg9 mi
2:52 am57 °FPassing clouds.8 mph96%29.57 "Hg9 mi
1:52 am57 °FPartly cloudy.7 mph96%29.61 "Hg10 mi
12:52 am58 °FPassing clouds.6 mph93%29.66 "Hg10 mi
11:52 pm
Tue, Apr 7
59 °FPassing clouds.8 mph90%29.69 "Hg10 mi
10:52 pm60 °FPassing clouds.7 mph93%29.72 "Hg10 mi
9:52 pm61 °FPassing clouds.8 mph90%29.75 "Hg10 mi
8:52 pm61 °FPassing clouds.7 mph90%29.76 "Hg10 mi
7:52 pm62 °FPartly cloudy.7 mph86%29.78 "Hg10 mi
6:52 pm63 °FBroken clouds.3 mph81%29.78 "Hg10 mi
5:52 pm64 °FBroken clouds.5 mph78%29.78 "Hg10 mi
4:52 pm63 °FBroken clouds.No wind81%29.81 "Hg10 mi
4:11 pm62 °FLight rain. Partly sunny.6 mph86%29.82 "Hg10 mi
3:27 pm65 °FHeavy rain. Mostly cloudy.12 mph68%29.87 "Hg2 mi
3:22 pm67 °FRain. Mostly cloudy.8 mph63%29.86 "Hg3 mi
2:52 pm70 °FMore clouds than sun.6 mph57%29.83 "Hg10 mi
1:52 pm71 °FMore clouds than sun.5 mph53%29.86 "Hg10 mi
12:52 pm68 °FMore clouds than sun.8 mph63%29.89 "Hg10 mi
11:52 am67 °FPartly sunny.5 mph66%29.91 "Hg10 mi
Weather by CustomWeather, © 2020

See weather overview

Advertising